Theta_e
322 322 323 322 322 322 322 322 322 322 323 323 323 323 323 323 321 316 312 318 320 330 330 312 309 309 308 305 305 301 294 291 294 301 302 305 310 316 325 320 325 323 323 329 334
321 322 322 322 322 322 322 322 322 322 322 323 323 323 323 323 313 309 323 334 334 332 309 307 307 308 303 302 302 298 291 295 304 305 299 300 305 314 319 321 321 326 332 332 334
320 321 322 322 322 321 321 321 321 322 322 322 322 322 322 321 309 312 338 337 335 329 311 310 309 307 301 299 301 298 298 303 310 305 304 303 306 307 318 315 322 323 328 331 333
320 320 321 321 321 321 321 321 322 323 323 322 321 322 322 315 298 311 339 338 339 318 310 308 306 303 299 299 301 297 303 304 308 306 305 303 306 308 311 316 326 324 327 329 330
320 320 320 320 320 320 320 321 322 322 321 321 322 323 312 307 310 316 343 339 324 312 308 305 303 300 299 300 303 299 303 306 306 304 302 307 311 317 317 323 325 325 327 326 328
319 319 319 319 319 319 319 319 319 319 320 321 322 323 311 301 317 317 319 317 314 309 306 306 306 305 300 300 298 303 303 304 304 303 304 308 316 321 320 324 323 324 324 326 327
318 318 318 319 319 319 319 318 318 319 321 322 324 319 309 305 316 314 315 312 313 312 309 308 307 305 301 301 303 303 301 302 304 302 303 307 317 317 322 327 324 321 321 323 325
317 317 318 318 319 319 319 318 318 320 321 322 324 313 302 317 316 312 311 312 312 311 310 311 308 303 300 302 303 299 297 293 299 304 304 304 310 322 327 325 323 324 326 325 323
317 316 317 317 318 319 318 318 319 321 322 323 312 307 306 322 312 313 313 312 312 312 310 314 305 301 302 296 295 295 292 292 298 304 305 309 312 321 325 323 322 322 322 322 321
316 316 316 316 317 317 316 317 319 318 321 322 318 306 310 312 313 315 314 314 310 309 308 305 302 298 296 295 290 293 294 297 298 303 316 314 313 318 321 320 319 320 321 320 320
315 315 315 316 316 315 313 313 312 310 311 308 311 309 313 314 313 311 313 311 308 306 299 302 298 295 299 299 300 302 300 299 301 304 309 313 314 316 317 316 317 317 319 319 320
315 315 315 315 315 315 310 309 315 312 306 314 316 314 317 315 310 312 314 305 306 300 303 300 296 303 304 304 304 302 299 297 301 306 308 308 308 311 315 316 316 316 316 317 318
313 313 314 315 314 309 310 315 320 314 304 312 315 315 315 311 309 310 310 307 304 302 302 299 302 307 306 303 302 299 298 298 298 302 309 306 303 309 313 314 315 315 316 316 315
312 313 314 313 310 309 309 317 316 315 302 309 308 312 311 310 309 314 313 308 305 303 302 301 306 306 303 303 302 296 302 302 300 296 290 298 290 305 309 307 310 310 310 311 312
311 313 313 309 303 305 313 311 313 316 294 313 306 313 311 307 308 309 313 310 305 304 304 300 303 304 303 303 305 300 303 300 300 295 292 297 296 303 310 303 305 307 307 307 308
311 313 312 312 309 311 313 312 313 301 296 306 308 306 304 306 307 309 311 312 310 306 308 306 312 309 307 308 307 307 301 298 295 292 288 296 298 301 305 305 305 305 305 305 305
310 311 308 314 305 312 314 312 299 294 309 306 304 305 303 304 306 307 307 303 300 296 297 305 306 310 311 305 306 301 293 287 287 286 287 298 298 301 307 307 306 303 303 304 307
309 309 309 314 313 314 313 305 294 304 305 310 307 303 301 305 305 307 304 302 307 303 298 297 296 305 307 303 299 297 294 287 282 284 288 301 294 300 305 308 307 305 303 305 305
308 311 312 317 318 315 308 297 298 305 308 307 307 304 304 308 306 305 305 304 306 305 298 296 299 308 308 305 303 299 294 295 291 291 287 296 301 306 307 305 305 303 304 303 304
306 312 312 317 315 312 303 299 305 309 309 308 302 306 301 304 305 303 305 309 308 310 307 305 295 306 307 307 306 301 302 293 291 284 283 291 293 296 303 303 304 303 300 301 303
314 308 315 314 314 305 296 301 307 309 308 305 303 302 303 304 305 305 305 309 310 311 308 303 298 299 302 298 298 298 297 296 293 291 285 284 292 305 304 304 303 303 304 304 305
308 303 315 312 301 300 298 305 308 308 310 309 308 306 305 306 304 305 304 307 314 312 303 302 297 292 296 303 305 300 298 297 289 290 294 291 292 305 306 307 304 302 305 304 303
301 307 316 311 298 299 306 308 307 306 306 305 304 306 308 302 298 305 305 310 311 308 303 302 295 290 293 296 299 297 301 299 296 293 290 287 291 304 307 306 307 305 306 303 300
306 302 306 307 306 303 302 303 304 309 308 307 305 307 302 304 305 303 306 312 314 311 317 310 299 294 289 293 296 297 301 301 295 288 293 295 296 300 302 303 304 304 302 298 298
304 301 303 298 301 302 301 303 303 304 307 309 307 308 305 300 302 303 307 309 311 315 309 303 295 297 299 300 302 302 302 302 299 300 294 297 296 298 301 302 306 304 299 298 299
301 301 304 302 302 302 300 300 303 306 304 305 306 308 306 301 301 299 304 303 302 307 302 301 292 297 295 303 302 299 302 302 301 299 297 296 293 301 304 301 299 297 298 298 297
306 306 305 302 301 298 299 304 306 306 310 313 310 307 305 307 309 306 303 304 304 300 300 299 296 294 291 300 299 293 300 299 300 300 297 290 295 300 296 297 296 295 297 296 297
Wind_Speed
8 8 7 8 8 9 9 10 10 10 10 11 11 12 13 13 14 2 5 12 7 6 3 5 2 4 1 5 5 5 2 5 6 4 7 4 7 3 7 9 1 1 4 9 17
8 7 7 8 9 9 10 10 10 10 10 10 11 12 12 12 4 6 13 9 9 4 3 4 8 5 3 4 1 5 3 8 9 4 3 2 1 11 7 6 6 7 13 18 21
8 8 8 8 9 9 10 11 11 11 10 10 11 13 11 7 4 7 2 9 7 2 2 1 4 1 3 1 6 6 9 9 6 4 5 4 9 2 15 2 14 19 18 17 15
9 9 8 9 9 9 10 10 10 10 9 9 11 12 13 2 1 4 7 8 3 1 2 4 4 6 5 5 3 4 9 9 7 5 4 3 1 12 6 7 13 15 18 15 13
9 9 9 9 9 9 10 10 10 10 9 9 10 11 3 3 10 6 3 0 1 2 3 1 4 2 3 6 11 4 3 3 4 4 2 4 18 10 17 20 19 22 21 18 16
9 9 9 9 9 9 10 10 10 9 8 9 9 10 2 4 6 6 7 3 7 4 3 5 7 8 5 5 2 6 6 5 3 5 4 14 14 12 11 18 23 20 17 13 16
10 9 10 10 10 10 9 9 9 9 8 8 7 3 2 13 4 7 7 7 5 5 3 5 5 7 5 11 6 6 9 9 8 4 2 15 20 19 14 21 21 18 14 14 11
13 12 12 10 10 10 10 10 9 9 8 7 3 1 8 7 2 4 5 8 6 8 6 11 5 3 1 5 10 6 4 4 7 2 3 13 8 17 11 17 19 17 13 14 13
14 13 12 12 10 10 11 10 11 9 5 4 2 2 11 12 3 10 9 8 6 8 5 5 1 2 8 4 8 7 6 2 4 8 6 16 13 14 12 11 20 15 14 15 15
15 13 12 11 11 11 11 6 4 7 3 4 3 4 6 5 5 4 6 5 5 5 8 4 5 2 4 5 4 5 6 6 8 9 29 28 20 14 14 17 17 14 14 14 13
17 14 11 10 11 10 7 2 4 2 1 8 6 6 7 6 1 3 4 3 3 5 3 3 4 6 12 7 3 7 7 8 5 7 20 20 19 14 13 15 17 13 12 13 14
18 17 14 10 8 8 2 1 6 5 7 9 12 7 12 4 5 8 6 2 2 7 5 5 4 13 7 6 7 8 6 2 3 10 21 16 19 14 11 13 14 15 13 13 13
18 17 16 11 5 1 2 7 7 5 1 8 7 5 7 6 3 8 8 2 3 5 5 7 4 4 7 7 8 6 7 6 1 3 19 24 8 12 14 16 16 15 13 12 11
19 17 16 19 2 3 5 6 7 5 5 7 5 6 3 3 3 4 6 2 5 6 2 4 5 11 10 10 6 9 6 8 7 8 3 4 5 6 10 12 12 11 10 10 10
21 16 14 5 2 2 8 8 4 7 3 4 4 3 5 5 3 3 2 2 2 5 7 4 7 8 11 3 5 3 4 5 3 5 4 9 10 2 7 9 9 8 9 9 9
23 15 12 2 0 8 9 8 6 7 2 3 5 5 2 4 3 4 1 2 1 4 9 3 0 6 5 3 5 1 9 10 7 4 4 5 7 3 4 4 5 6 7 6 5
24 15 4 1 4 4 7 6 7 3 6 2 6 5 6 4 4 4 3 6 1 5 6 6 6 3 4 7 9 12 8 5 7 7 5 2 11 3 9 8 8 7 5 5 4
26 15 7 5 6 7 5 7 4 6 3 6 2 2 3 3 3 3 4 5 8 6 4 4 7 8 11 4 4 3 7 6 4 3 7 8 5 4 6 8 6 5 3 3 2
21 4 3 6 4 4 7 5 5 4 4 6 6 9 9 10 5 6 5 4 4 5 6 4 2 3 7 3 3 5 3 2 4 1 3 4 4 8 8 6 6 6 5 5 5
3 4 4 5 5 7 7 3 3 3 6 7 5 5 7 8 9 3 5 6 4 5 4 1 2 3 6 9 12 6 4 6 5 2 3 4 3 4 9 6 6 7 7 6 6
3 5 7 3 6 7 4 5 3 4 7 6 4 4 3 4 6 4 5 7 6 4 9 3 4 8 6 6 4 8 7 4 3 4 2 3 2 1 3 4 6 8 5 4 4
3 3 4 4 5 1 2 4 1 5 8 6 5 7 4 6 4 5 5 6 6 3 4 5 4 1 4 5 6 3 3 2 5 3 3 7 5 3 3 3 3 3 4 5 5
2 4 5 7 4 4 7 7 4 4 4 4 5 4 1 4 4 4 7 6 9 6 2 3 4 4 10 10 8 6 6 4 5 4 1 4 3 2 2 3 4 7 3 3 7
3 5 7 6 1 2 5 5 7 6 7 4 7 6 5 8 8 3 3 6 7 5 7 7 4 6 5 8 2 6 7 5 4 4 4 1 5 5 3 5 6 3 4 7 5
4 1 2 4 6 6 4 4 4 5 4 10 10 13 5 5 6 5 4 2 5 3 5 6 3 4 5 6 12 9 9 9 7 3 3 5 2 3 6 5 4 5 7 6 6
3 4 5 3 5 6 6 5 5 3 5 4 8 8 10 6 4 3 4 2 2 3 4 4 1 3 4 10 15 12 9 10 12 9 6 5 0 4 6 11 11 7 5 7 6
4 4 4 6 6 5 4 3 3 2 9 6 9 6 9 6 4 5 4 3 2 5 3 3 3 3 4 3 5 9 9 8 7 6 2 1 1 10 7 8 5 6 7 5 4
Wind_Direction
302 298 297 294 298 295 297 296 302 306 304 308 317 313 310 315 313 82 257 221 188 205 210 289 321 357 269 240 178 113 23 269 264 260 286 336 122 190 50 124 168 72 80 90 85
301 295 299 302 291 288 293 298 300 299 304 311 316 309 312 336 336 257 241 202 207 211 308 350 321 8 285 239 233 130 148 239 212 225 225 258 253 145 114 130 82 81 78 81 97
315 321 311 294 288 294 294 290 291 298 305 316 312 304 317 330 337 255 3 184 200 154 282 294 294 280 260 211 213 202 223 248 236 271 170 29 5 56 121 314 166 148 108 92 98
324 317 300 293 296 289 284 288 294 298 310 312 308 315 313 161 307 274 183 202 162 227 280 347 4 348 310 319 280 174 248 254 293 239 54 15 266 41 59 140 105 75 98 102 97
324 317 307 302 292 289 292 293 295 301 308 311 314 326 348 346 252 256 195 351 152 187 229 109 319 222 235 311 328 101 299 297 301 2 93 42 68 87 76 81 87 91 85 80 83
322 313 310 301 295 296 291 290 292 302 307 304 314 317 351 285 242 177 192 162 239 183 223 142 237 240 278 300 22 294 295 313 323 14 20 66 33 81 62 82 83 86 90 92 101
323 323 327 319 306 295 296 291 295 297 286 288 299 298 268 239 279 202 185 213 218 194 263 228 212 38 322 323 327 341 3 341 314 357 197 121 32 92 110 93 90 85 89 86 86
337 341 330 315 307 307 298 293 287 275 268 272 268 228 254 252 205 251 214 297 270 268 215 271 312 346 27 302 353 8 42 4 304 190 18 73 87 82 89 100 95 91 83 71 62
342 337 326 323 312 301 286 281 272 270 241 204 184 112 275 310 214 221 188 221 260 277 257 291 44 328 2 44 354 4 263 309 27 7 59 86 112 91 81 83 86 76 58 51 55
344 337 326 318 312 300 289 257 308 307 191 191 262 345 281 289 238 198 223 242 265 338 1 47 55 32 17 69 249 301 15 38 58 19 76 94 94 91 95 94 88 78 79 72 67
342 336 327 327 316 314 327 102 26 20 200 199 195 225 277 276 344 262 239 301 2 33 238 323 88 253 262 224 201 103 67 51 354 77 68 90 92 85 92 90 99 98 88 77 64
339 334 333 326 312 304 314 138 220 216 303 232 242 247 254 249 295 283 118 177 120 274 339 23 225 228 232 68 75 62 54 13 323 81 93 105 93 93 78 82 99 104 92 83 73
338 332 329 323 314 85 202 230 238 44 11 296 218 218 231 161 249 249 149 148 265 277 310 145 230 46 81 61 51 33 32 358 325 106 113 112 83 103 83 75 76 74 86 86 88
335 332 327 321 78 336 262 262 291 140 58 280 184 253 206 141 308 200 194 127 333 285 108 77 354 79 47 33 68 33 330 9 4 39 301 181 119 101 97 82 66 51 51 60 59
333 330 326 297 261 327 254 317 305 60 44 239 224 225 149 149 173 287 261 49 280 288 65 292 71 65 62 76 71 247 337 351 10 9 70 354 86 131 145 71 64 69 70 70 73
328 327 324 93 329 244 308 319 51 48 272 229 173 178 157 209 226 236 237 34 272 29 38 39 283 60 155 161 100 251 28 18 26 31 45 312 108 27 56 127 111 97 93 90 93
324 322 281 340 239 317 343 37 42 99 313 154 194 167 195 248 201 179 154 18 125 58 3 359 343 11 36 28 4 46 47 358 0 8 239 30 70 101 98 101 125 142 133 144 164
322 315 194 222 255 22 41 51 55 267 19 333 19 180 197 219 199 168 115 79 21 72 77 78 9 19 338 51 331 309 134 150 242 226 266 32 72 102 136 123 110 95 148 125 190
320 335 339 263 226 90 68 63 215 315 345 3 16 46 4 349 103 111 68 62 55 24 108 64 323 336 34 12 70 300 14 197 117 10 64 115 103 141 130 123 142 168 200 217 219
9 355 281 279 118 63 72 237 265 15 4 39 61 28 24 350 22 50 66 332 85 46 83 341 33 17 320 43 357 62 269 20 7 314 279 80 78 334 154 188 182 193 205 220 196
36 41 260 46 65 51 137 233 278 49 55 53 25 26 15 38 20 26 27 36 32 25 58 60 77 308 32 33 6 349 348 33 125 104 26 350 161 45 103 150 166 204 172 212 230
15 48 293 31 50 70 181 224 225 53 20 26 75 68 35 34 40 58 75 23 349 41 56 339 119 33 261 267 53 60 342 89 116 316 118 149 235 324 150 169 192 190 220 247 234
43 270 334 77 57 337 315 339 61 55 57 35 44 34 12 30 58 70 72 316 48 65 82 352 20 20 344 346 358 43 353 41 90 84 202 143 216 229 123 165 219 239 278 113 53
64 19 332 31 137 107 7 346 6 15 39 47 24 14 12 34 22 117 113 29 23 51 51 94 92 143 190 235 251 62 23 18 90 101 148 254 164 217 215 215 224 225 122 90 72
29 342 187 328 340 340 45 357 27 355 71 16 25 41 66 54 42 46 72 59 29 47 48 86 54 13 307 316 85 92 67 54 67 67 92 170 223 201 237 237 244 97 92 62 44
70 37 345 290 309 360 358 323 22 358 45 53 98 58 56 79 53 38 89 107 188 40 74 20 270 53 320 72 80 64 29 80 86 90 88 134 175 155 76 76 76 80 90 66 69
324 341 95 307 340 21 275 315 8 84 43 92 120 86 45 333 279 237 240 201 233 145 112 102 112 65 289 331 130 46 40 77 79 42 110 48 355 110 78 85 88 72 91 84 48